COSMOS 1275 DEB, 17615

Orbit data source: Space-Track

COSMOS 1275 DEB, 17615 is space debris in LEO originally from a launch on Thu, 04 Jun 1981 UTC launched from the Plesetsk Missile And Space Complex (PKMTR). Debris objects in space refer to the collection of defunct objects orbiting the Earth. Examples of debris include non-operational satellites, rocket bodies, and fragments generated from explosions, collisions, or faulty payload assembly.

Loading next visibility...
Identifier
17615, 1981-053KJ
Orbit
LEO
Country
Flag of CISCIS
Related business
Manufacturer
Unknown
Mission
Spacecraft
Bus & Motor
Unknown
Mass
Unknown
Launch date (UTC)
1981-06-04 (45 years ago)
Launch vehicle
Unknown
Launch site
Plesetsk Missile And Space Complex (PKMTR)
Object type
Payload
Rocket body
Debris
Shape & HBR
Unknown shape, 0.1 m
Radar Cross Section
Small (<0.1 m²)

Expand to show TLE details & history
Last TLE update: 22 hours ago

TLE from 22 hours ago
0 COSMOS 1275 DEB
1 17615U 81053KJ  26104.14291249  .00001473  00000-0  71696-3 0  9999
2 17615  82.8548 160.0567 0039962 193.8039 195.7721 14.17189448 84128
Epoch: 2026-04-14T03:25Z
TLE epoch observation values (Epoch: 2026-04-14T03:25:47.639Z)
Latitude
29.24855°
Longitude
-89.71097°
Altitude
866.299 km
Speed
7.408 km/s
True Right ascension
10h 56m 14s
True Declination
29° 06' 16"
Sunlit
Object was in full shadow at epoch
Visualization orbit readout
Latitude
Unknown
Longitude
Unknown
Altitude
Unknown
Speed
Unknown
Apparent Right ascension
Unknown
Apparent Declination
Unknown
Sunlit
N/A
Visualization observer readout
Local Sidereal Time
08:12:03
Azimuth
Unknown
Elevation
Unknown
Doppler factor
Unknown
Orbital elements
Apogee altitude
860.781 km
Perigee altitude
803.155 km
Semi-major axis
7,210.105 km
Eccentricity
0.004
Inclination
82.8548°
RAAN
160.0567°
Arg. of periapsis
193.8039°
True anomaly
195.64822°
Mean anomaly
195.7721°
Eccentric anomaly
195.7101°
Mean motion
3.54512 °/min
Orbital period
101.55 mins
BSTAR
0.00071696
Loading maneuver chart data...
Computing Atmospheric mass density...
Loading historical data...
Loading historical data...
Loading historical data...
Loading historical data...
Loading historical data...
Loading historical data...
Loading historical data...

Documentation

Showing up to 5 results
|